Content
SEND FEEDBACK

Daily
Averages
Monthly
Summary
Belgium

HASSELT, BELGIUM


Home > Europe > Belgium
Elevation: 180 feet     Latitude: 51 10N     Longitude: 005 28E

WEATHER
 
SELECT A DAY
Number of Records: 166,760;   Date Range: 7/1/96 - 4/17/14
 
SHARE

PRINT THIS DATA

[ ← Previous Day ]
WEATHER ALMANAC - JANUARY 31, 2013
[ Next Day → ]
[ °C ]   °F
Weather ElementAverageHighLow
Temperature45.7 °F48.2 °F (2:55 pm)42.8 °F (11:53 am)
Dewpoint38.7 °F43 °F (4:00 pm)35.6 °F (1:55 am)
Humidity75.8 %93 % (12:25 pm)58 % (1:00 am)
Barometer29.92 in30.06 in (4:00 am)29.83 in (2:25 pm)
Wind Speed18.5 mph25.3 mph (12:25 pm)
Wind Gust35.7 mph (11:25 am)
Weather ElementAverage
Visibility6.4 mi
Wind DirectionWSW (232.6 °)

Weather ElementTotal
Precipitation---
Heating Degree Days19.5 (Base 65)
Averaged from 62 records on January 31, 2013
WEATHER CONDITIONS BREAKOUT
WIND DIRECTION BREAKOUT
WEATHER BY HOUR - JANUARY 31, 2013
[ °C ]   °F
Local TimeTemperatureDewpointHumidityBarometerVisibilityWind DirectionWind SpeedGust SpeedPrecipitationEventsConditions
1:00 AM47.0 °F37.0 °F58 %30.03 in12.0 miWSW (250°)20.1 mphMostly Cloudy
1:25 AM46.4 °F37.4 °F71 %30.01 in6.2 miWSW (250°)17.3 mphMostly Cloudy
1:55 AM46.4 °F35.6 °F66 %30.04 in6.2 miWSW (250°)16.1 mphMostly Cloudy
2:25 AM44.6 °F35.6 °F71 %30.04 in6.2 miWSW (240°)16.1 mphScattered Clouds
2:55 AM44.6 °F37.4 °F76 %30.04 in6.2 miWSW (240°)17.3 mphMostly Cloudy
3:25 AM44.6 °F37.4 °F76 %30.04 in6.2 miWSW (250°)17.3 mphScattered Clouds
3:55 AM44.6 °F37.4 °F76 %30.04 in6.2 miWSW (240°)17.3 mphMostly Cloudy
4:00 AM45.0 °F38.0 °F67 %30.06 in12.0 miWSW (240°)17.9 mphMostly Cloudy
4:25 AM44.6 °F37.4 °F76 %30.04 in6.2 miWSW (240°)18.4 mphMostly Cloudy
4:55 AM44.6 °F37.4 °F76 %30.04 in6.2 miSW (230°)17.3 mphMostly Cloudy
5:25 AM44.6 °F37.4 °F76 %30.04 in6.2 miWSW (240°)16.1 mphMostly Cloudy
5:55 AM44.6 °F39.2 °F81 %30.01 in6.2 miSW (230°)16.1 mphMostly Cloudy
6:25 AM44.6 °F39.2 °F81 %30.01 in6.2 miSW (220°)13.8 mphMostly Cloudy
6:55 AM44.6 °F39.2 °F81 %30.01 in6.2 miSSW (210°)13.8 mphMostly Cloudy
7:00 AM45.0 °F39.0 °F72 %30.01 in12.0 miSSW (210°)13.4 mphMostly Cloudy
7:25 AM44.6 °F39.2 °F81 %29.98 in6.2 miSW (220°)16.1 mphMostly Cloudy
7:55 AM44.6 °F39.2 °F81 %29.98 in6.2 miSW (220°)17.3 mphMostly Cloudy
8:25 AM44.6 °F39.2 °F81 %29.98 in6.2 miSW (220°)17.3 mphMostly Cloudy
8:55 AM44.6 °F37.4 °F76 %29.95 in6.2 miSSW (210°)19.6 mphMostly Cloudy
8:56 AM44.6 °F37.4 °F76 %29.95 in6.2 miSSW (210°)19.6 mphMostly Cloudy
9:25 AM44.6 °F37.4 °F76 %29.95 in6.2 miSSW (210°)19.6 mphMostly Cloudy
9:55 AM44.6 °F37.4 °F76 %29.92 in6.2 miSSW (210°)17.3 mphMostly Cloudy
10:00 AM45.0 °F37.0 °F66 %29.94 in12.0 miSSW (210°)17.9 mphPartly Cloudy
10:25 AM44.6 °F35.6 °F71 %29.89 in6.2 miSW (220°)19.6 mph31.1 mphMostly Cloudy
10:55 AM46.4 °F35.6 °F66 %29.89 in6.2 miSW (220°)19.6 mphMostly Cloudy
11:25 AM44.6 °F37.4 °F76 %29.89 in6.2 miSW (220°)24.2 mph35.7 mphRainLight Rain
11:38 AM44.6 °F39.2 °F81 %29.89 in3.1 miSW (220°)18.4 mphRainLight Rain
11:40 AM44.6 °F39.2 °F81 %29.89 in2.5 miSW (220°)18.4 mphRainLight Rain
11:46 AM44.6 °F39.2 °F81 %29.89 in4.3 miSW (220°)19.6 mphRainLight Rain
11:53 AM42.8 °F39.2 °F87 %29.89 in6.2 miSW (220°)21.9 mphRainLight Rain
11:55 AM44.6 °F39.2 °F81 %29.89 in6.2 miSW (220°)23.0 mphRainLight Rain
12:10 PM44.6 °F39.2 °F81 %29.89 inSW (230°)19.6 mphRainLight Rain
12:25 PM42.8 °F41.0 °F93 %29.89 inSW (220°)25.3 mphRainLight Rain
12:54 PM44.6 °F41.0 °F87 %29.86 in5.0 miSW (220°)24.2 mph35.7 mphMostly Cloudy
12:55 PM44.6 °F41.0 °F87 %29.86 in5.0 miSW (220°)24.2 mph35.7 mphMostly Cloudy
1:00 PM44.0 °F40.0 °F79 %29.87 in5.0 miSW (220°)24.6 mphRainLight Rain
1:25 PM44.6 °F41.0 °F87 %29.86 in5.0 miSW (220°)25.3 mphMostly Cloudy
1:45 PM44.6 °F41.0 °F87 %29.86 in6.2 miSW (220°)21.9 mphMostly Cloudy
1:55 PM44.6 °F41.0 °F87 %29.86 in6.2 miSW (220°)23.0 mphMostly Cloudy
2:25 PM46.4 °F41.0 °F81 %29.83 in6.2 miSW (230°)20.7 mphMostly Cloudy
2:55 PM48.2 °F41.0 °F76 %29.83 in6.2 miSW (230°)21.9 mphMostly Cloudy
3:05 PM48.2 °F41.0 °F76 %29.83 in6.2 miSW (230°)21.9 mphMostly Cloudy
3:25 PM48.2 °F41.0 °F76 %29.83 in6.2 miSW (230°)19.6 mphMostly Cloudy
3:55 PM48.2 °F42.8 °F82 %29.83 in6.2 miWSW (240°)18.4 mphRainLight Rain Showers
4:00 PM47.0 °F43.0 °F80 %29.83 in7.0 miWSW (240°)17.9 mphRainLight Rain Showers
4:25 PM48.2 °F42.8 °F82 %29.83 in6.2 miWSW (250°)16.1 mphRainLight Rain Showers
4:55 PM48.2 °F39.2 °F71 %29.83 in6.2 miWest (260°)17.3 mphMostly Cloudy
5:25 PM48.2 °F37.4 °F66 %29.86 in6.2 miWest (260°)16.1 mphMostly Cloudy
5:55 PM48.2 °F39.2 °F71 %29.86 in6.2 miWest (260°)16.1 mph27.6 mphMostly Cloudy
6:25 PM48.2 °F37.4 °F66 %29.86 in6.2 miWest (260°)15.0 mphMostly Cloudy
6:55 PM48.2 °F39.2 °F71 %29.89 in6.2 miWest (260°)17.3 mphMostly Cloudy
7:00 PM48.0 °F38.0 °F60 %29.90 in7.0 miWest (260°)17.9 mphPartly Cloudy
7:25 PM48.2 °F39.2 °F71 %29.89 in6.2 miWSW (250°)16.1 mph27.6 mphMostly Cloudy
7:55 PM46.4 °F39.2 °F76 %29.89 in6.2 miWSW (250°)19.6 mphMostly Cloudy
8:25 PM46.4 °F39.2 °F76 %29.92 in6.2 miWSW (250°)15.0 mphScattered Clouds
8:55 PM46.4 °F37.4 °F71 %29.92 in6.2 miWSW (250°)16.1 mphScattered Clouds
9:25 PM46.4 °F37.4 °F71 %29.89 in6.2 miWSW (240°)17.3 mphMostly Cloudy
9:55 PM46.4 °F37.4 °F71 %29.92 in6.2 miWSW (240°)16.1 mphMostly Cloudy
10:00 PM46.0 °F38.0 °F64 %29.93 in6.0 miWSW (240°)15.7 mphClear
10:25 PM46.4 °F37.4 °F71 %29.92 in6.2 miSW (230°)18.4 mphScattered Clouds
10:55 PM46.4 °F37.4 °F71 %29.92 in6.2 miWSW (240°)16.1 mphScattered Clouds
11:25 PM46.4 °F37.4 °F71 %29.92 in6.2 miWSW (240°)17.3 mphPartly Cloudy
Hourly data recorded from EBBL, located 0.18 miles away from Hasselt, Belgium







STORIES FROM OUR PARTNERS